Hourly Data Report for October 03, 2017

All times are specified in Local Standard Time (LST). Add 1 hour to adjust for Daylight Saving Time where and when it is observed.

YOHIN
NORTHWEST TERRITORIES

61°14'31.000" N
123°44'30.000" W
204.00 m
2204300
71020
XYH

Download Data

Hourly Data (October 2017)
Hourly Data Report for October 3, 2017
Temp Definition
°C
Dew Point Temp Definition
°C
Rel Hum Definition
%
Wind Dir Definition
10's deg

Wind Spd Definition
km/h
Visibility Definition
km
Stn Press Definition
kPa
Hmdx Definition


Wind Chill Definition


Weather Definition


TIME
00:00 11.2 -3.2 36 LegendMM LegendMM   98.86     LegendNANA
01:00 13.6 -4.2 29 LegendMM LegendMM   98.79     LegendNANA
02:00 14.6 -3.9 28 LegendMM LegendMM   98.65     LegendNANA
03:00 14.0 -3.6 29 LegendMM LegendMM   98.68     LegendNANA
04:00 12.2 -2.5 36 LegendMM LegendMM   98.56     LegendNANA
05:00 14.0 -3.3 30 LegendMM LegendMM   98.59     LegendNANA
06:00 13.7 -3.0 31 LegendMM LegendMM   98.59     LegendNANA
07:00 13.2 -2.6 33 LegendMM LegendMM   98.59     LegendNANA
08:00 13.1 -2.5 34 LegendMM LegendMM   98.62     LegendNANA
09:00 13.5 -2.2 34 LegendMM LegendMM   98.72     LegendNANA
10:00
11:00
12:00
13:00 17.0 -0.8 30 LegendMM LegendMM   98.94     LegendNANA
14:00 18.2 -0.8 27 LegendMM LegendMM   99.03     LegendNANA
15:00 19.2 -0.4 27 LegendMM LegendMM   99.06     LegendNANA
16:00 18.9 -0.7 27 LegendMM LegendMM   99.09     LegendNANA
17:00 18.5 -0.6 27 LegendMM LegendMM   99.11     LegendNANA
18:00 17.2 -1.0 29 LegendMM LegendMM   99.11     LegendNANA
19:00 12.8 2.5 50 LegendMM LegendMM   99.18     LegendNANA
20:00 10.5 2.5 58 LegendMM LegendMM   99.26     LegendNANA
21:00 7.2 2.0 69 LegendMM LegendMM   99.30     LegendNANA
22:00 4.5 1.7 82 LegendMM LegendMM   99.33     LegendNANA
23:00 2.7 0.7 87 LegendMM LegendMM   99.33     LegendNANA

Notes on Data Quality.

Legend

  • E = Estimated
  • M = Missing
  • NA = Not Available
  • ‡ = Partner data that is not subject to review by the National Climate Archives
Date modified: